Location: Zagreb
(45.8000°N, 16.0000°E)
Time: 20:43:01
(UTC+02:00)

SR - Pass Details

Date: 14 August 2020
Orbit: 583 x 873 km, 66.7° (Epoch: 28 September)

Event Time Altitude Azimuth Distance (km) Brightness Sun altitude
Rises 04:30:15 0° 337° (NNW) 2,818 ? -13.6°
Reaches altitude 10° 04:33:22 10° 2° (N) 1,930 ? -13.2°
Maximum altitude 04:35:52 15° 37° (NE) 1,649 ? -12.9°
Drops below altitude 10° 04:38:25 10° 73° (ENE) 1,976 ? -12.5°
Sets 04:41:39 0° 97° (E) 2,928 ? -12.1°
